THOR ABLESTAR DEB, 1942

Orbit data source: Space-Track

THOR ABLESTAR DEB, 1942 is space debris in LEO originally from a launch on Thu, 29 Jun 1961 UTC launched from the Air Force Eastern Test Range (AFETR). Debris objects in space refer to the collection of defunct objects orbiting the Earth. Examples of debris include non-operational satellites, rocket bodies, and fragments generated from explosions, collisions, or faulty payload assembly.

Loading next visibility...
Identifier
1942, 1961-015HS
Orbit
LEO
Country
Flag of USUS
Related business
Manufacturer
Unknown
Mission
Spacecraft
Bus & Motor
Unknown
Mass
Unknown
Launch date (UTC)
1961-06-29 (64 years ago)
Launch vehicle
Unknown
Launch site
Air Force Eastern Test Range (AFETR)
Object type
Payload
Rocket body
Debris
Shape & HBR
Unknown shape, 0.1 m
Radar Cross Section
Small (<0.1 m²)

Expand to show TLE details & history
Last TLE update: 17 hours ago

TLE from 17 hours ago
0 THOR ABLESTAR DEB
1 01942U 61015HS  25308.89127278  .00000321  00000-0  78652-3 0  9998
2 01942  67.2664 111.0938 0336645  44.3322 102.5058 13.13153437 87363
Epoch: 2025-11-04T21:23Z
TLE epoch observation values (Epoch: 2025-11-04T21:23:25.968Z)
Latitude
26.99925°
Longitude
-86.40008°
Altitude
1,276.864 km
Speed
7.19 km/s
True Right ascension
18h 35m 19s
True Declination
26° 52' 11"
Sunlit
Object was in daylight at epoch
Visualization orbit readout
Latitude
Unknown
Longitude
Unknown
Altitude
Unknown
Speed
Unknown
Apparent Right ascension
Unknown
Apparent Declination
Unknown
Sunlit
N/A
Visualization observer readout
Local Sidereal Time
10:08:38
Azimuth
Unknown
Elevation
Unknown
Doppler factor
Unknown
Orbital elements
Apogee altitude
1,464.816 km
Perigee altitude
953.955 km
Semi-major axis
7,587.522 km
Eccentricity
0.03366
Inclination
67.2664°
RAAN
111.0938°
Arg. of periapsis
44.3322°
True anomaly
106.23529°
Mean anomaly
102.5058°
Eccentric anomaly
104.37425°
Mean motion
3.28392 °/min
Orbital period
109.62 mins
BSTAR
0.00078652

Documentation

Showing up to 5 results
|